Weather History for ORANGE GROVE, NALF, TX

Change the Weather History Date:

Saturday, August 23, 2014

  Actual Average (KALI) Record (KALI)
Temperature  
Mean Temperature 88 °F -  
Max Temperature 100 °F 93 °F 102 °F (2005)
Min Temperature 75 °F 73 °F 71 °F (1999)
Cooling Degree Days 22    
Growing Degree Days 38 (Base 50)    
Moisture  
Dew Point 74 °F    
Average Humidity 71    
Maximum Humidity 94    
Minimum Humidity 35    
Precipitation  
Precipitation 0.00 in - - ()
Sea Level Pressure  
Sea Level Pressure 29.93 in    
Wind  
Wind Speed 8 mph (SSE)    
Max Wind Speed 21 mph    
Max Gust Speed 26 mph    
Visibility 10 miles    
Events      
Averages and records for this station are not official NWS values.
T = Trace of Precipitation, MM = Missing Value Source: NWS Daily Summary

Daily Weather History Graph

Daily Weather History Graph

Search for Another Location

Airport:

Trip Planner

Search our weather history database for the weather conditions in past years. The results will help you decide how hot, cold, wet, or windy it might be!

Date:

Astronomy

Aug. 23, 2014 Rise Set
Actual Time 7:06 AM CDT 8:02 PM CDT
Civil Twilight 6:42 AM CDT 8:26 PM CDT
Nautical Twilight 6:13 AM CDT 8:55 PM CDT
Astronomical Twilight 5:44 AM CDT 9:24 PM CDT
Moon 5:27 AM CDT (8/23) 6:46 PM CDT (8/23)
Length of Visible Light 13h 44m
Length of Day
12h 56m
Waning Crescent, 3% of the Moon is Illuminated
Aug 23
Waning Crescent
Aug 25
New
Sep 2
First Quarter
Sep 8
Full
Sep 15
Last Quarter

Hourly Weather History & Observations

Time (CDT) Temp. Heat Index Dew Point Humidity Pressure Visibility Wind Dir Wind Speed Gust Speed Precip Events Conditions
12:56 AM 79.0 °F - 75.0 °F 88% 29.95 in 10.0 mi SSE 5.8 mph - N/A   Clear
1:56 AM 79.0 °F - 75.0 °F 88% 29.94 in 10.0 mi South 5.8 mph - N/A   Clear
2:56 AM 77.0 °F - 73.9 °F 90% 29.93 in 10.0 mi South 6.9 mph - N/A   Clear
3:56 AM 75.9 °F - 73.9 °F 94% 29.93 in 10.0 mi SSW 3.5 mph - N/A   Clear
4:56 AM 75.9 °F - 73.9 °F 94% 29.93 in 10.0 mi SSW 3.5 mph - N/A   Clear
5:56 AM 75.0 °F - 73.0 °F 94% 29.92 in 10.0 mi South 4.6 mph - N/A   Scattered Clouds
6:06 AM 75.9 °F - 73.9 °F 94% 29.99 in 10.0 mi SSE 3.5 mph - N/A   Mostly Cloudy
6:56 AM 78.1 °F - 75.0 °F 90% 29.93 in 10.0 mi North - - N/A   Overcast
7:49 AM 79.0 °F - 75.9 °F 90% 30.00 in 10.0 mi Calm Calm - N/A   Overcast
7:56 AM 79.0 °F - 75.9 °F 90% 29.94 in 10.0 mi Calm Calm - N/A   Overcast
8:56 AM 81.0 °F 87.9 °F 77.0 °F 88% 29.95 in 10.0 mi SSE 6.9 mph - N/A   Overcast
9:09 AM 82.0 °F 90.2 °F 77.0 °F 85% 30.01 in 10.0 mi SSE 8.1 mph - N/A   Mostly Cloudy
9:23 AM 82.9 °F 91.8 °F 77.0 °F 82% 30.01 in 10.0 mi South 6.9 mph - N/A   Mostly Cloudy
9:38 AM 84.0 °F 92.6 °F 75.9 °F 76% 30.02 in 10.0 mi SSE 6.9 mph - N/A   Scattered Clouds
9:56 AM 84.9 °F 93.3 °F 75.0 °F 72% 29.96 in 10.0 mi South 11.5 mph - N/A   Scattered Clouds
10:11 AM 86.0 °F 95.1 °F 75.0 °F 70% 30.02 in 10.0 mi SSE 9.2 mph - N/A   Mostly Cloudy
10:19 AM 88.0 °F 97.5 °F 75.0 °F 65% 30.02 in 10.0 mi SE 9.2 mph - N/A   Scattered Clouds
10:56 AM 90.0 °F 97.9 °F 73.0 °F 57% 29.95 in 10.0 mi SSE 11.5 mph - N/A   Partly Cloudy
11:56 AM 93.0 °F 100.1 °F 71.1 °F 49% 29.95 in 10.0 mi SSE 8.1 mph - N/A   Clear
12:56 PM 96.1 °F 101.6 °F 69.1 °F 41% 29.92 in 10.0 mi SSE 11.5 mph 20.7 mph N/A   Scattered Clouds
1:56 PM 100.0 °F 105.6 °F 68.0 °F 35% 29.90 in 10.0 mi SSE 17.3 mph 20.7 mph N/A   Partly Cloudy
2:56 PM 100.0 °F 107.0 °F 69.1 °F 37% 29.87 in 10.0 mi ESE 11.5 mph 26.5 mph N/A   Partly Cloudy
3:56 PM 99.0 °F 104.2 °F 68.0 °F 36% 29.85 in 10.0 mi South 16.1 mph 23.0 mph N/A   Partly Cloudy
4:56 PM 99.0 °F 106.2 °F 70.0 °F 39% 29.84 in 10.0 mi SE 20.7 mph - N/A   Scattered Clouds
5:56 PM 96.1 °F 103.5 °F 71.1 °F 44% 29.84 in 10.0 mi SE 19.6 mph - N/A   Clear
6:56 PM 93.0 °F 100.1 °F 71.1 °F 49% 29.84 in 10.0 mi SE 18.4 mph - N/A   Clear
7:56 PM 89.1 °F 96.0 °F 72.0 °F 57% 29.85 in 10.0 mi SSE 16.1 mph - N/A   Clear
8:56 PM 86.0 °F 93.0 °F 73.0 °F 65% 29.87 in 10.0 mi SSE 19.6 mph - N/A   Clear
9:56 PM 84.0 °F 91.9 °F 75.0 °F 74% 29.88 in 10.0 mi SSE 15.0 mph - N/A   Clear
10:56 PM 82.9 °F 90.8 °F 75.9 °F 79% 29.89 in 10.0 mi SSE 9.2 mph - N/A   Clear
11:56 PM 82.0 °F 89.4 °F 75.9 °F 82% 29.89 in 10.0 mi SSE 9.2 mph - N/A   Clear